Hourly Weather Rulewo

Today, 10 April, Saturday

Time Temperature Precipitation Wind Pressure Humidity
00:00 +3°C° 0 mm 3 mps 752 mmHg 80%
01:00 +4°C° 0 mm 2 mps 752 mmHg 83%
02:00 +4°C° 0 mm 2 mps 752 mmHg 85%
03:00 +3°C° 0 mm 2 mps 752 mmHg 87%
04:00 +3°C° 0 mm 2 mps 752 mmHg 89%
05:00 +4°C° 0 mm 2 mps 753 mmHg 86%
06:00 +6°C° 0 mm 1 mps 753 mmHg 83%
07:00 +6°C° 0 mm 1 mps 753 mmHg 80%
08:00 +6°C° 0.2 mm 2 mps 753 mmHg 81%
09:00 +6°C° 0.2 mm 2 mps 754 mmHg 81%
10:00 +7°C° 0.2 mm 2 mps 754 mmHg 81%
11:00 +7°C° 0.5 mm 2 mps 754 mmHg 84%
12:00 +7°C° 0.5 mm 1 mps 755 mmHg 87%
13:00 +7°C° 0 mm 1 mps 755 mmHg 89%
14:00 +7°C° 0.2 mm 1 mps 755 mmHg 90%
15:00 +7°C° 0.2 mm 1 mps 755 mmHg 90%
16:00 +7°C° 0.2 mm 1 mps 756 mmHg 90%
17:00 +7°C° 0 mm 1 mps 756 mmHg 91%
18:00 +7°C° 0 mm 1 mps 756 mmHg 92%
19:00 +6°C° 0 mm 1 mps 756 mmHg 92%
20:00 +6°C° 0 mm 1 mps 756 mmHg 93%
21:00 +6°C° 0 mm 1 mps 757 mmHg 94%
22:00 +5°C° 0 mm 2 mps 757 mmHg 94%
23:00 +5°C° 0 mm 2 mps 757 mmHg 95%

Tomorrow, 11 April, Sunday

Time Temperature Precipitation Wind Pressure Humidity
00:00 +5°C° 0 mm 2 mps 757 mmHg 95%
01:00 +5°C° 0 mm 2 mps 757 mmHg 95%
02:00 +5°C° 0 mm 2 mps 756 mmHg 95%
03:00 +5°C° 0 mm 2 mps 756 mmHg 96%
04:00 +5°C° 0 mm 2 mps 756 mmHg 96%
05:00 +5°C° 0 mm 3 mps 756 mmHg 94%
06:00 +5°C° 0 mm 3 mps 756 mmHg 92%
07:00 +6°C° 0 mm 4 mps 755 mmHg 90%
08:00 +8°C° 0 mm 4 mps 755 mmHg 82%
09:00 +10°C° 0 mm 5 mps 755 mmHg 74%
10:00 +13°C° 0 mm 6 mps 755 mmHg 66%
11:00 +14°C° 0 mm 6 mps 754 mmHg 62%
12:00 +15°C° 0 mm 6 mps 754 mmHg 57%
13:00 +16°C° 0 mm 6 mps 754 mmHg 53%
14:00 +16°C° 0 mm 6 mps 754 mmHg 53%
15:00 +16°C° 0 mm 6 mps 754 mmHg 53%
16:00 +17°C° 0 mm 6 mps 753 mmHg 53%
17:00 +15°C° 0 mm 6 mps 754 mmHg 56%
18:00 +14°C° 0 mm 6 mps 754 mmHg 59%
19:00 +11°C° 0 mm 6 mps 754 mmHg 62%
20:00 +12°C° 0 mm 5 mps 754 mmHg 64%
21:00 +10°C° 0 mm 5 mps 754 mmHg 67%
22:00 +10°C° 0 mm 4 mps 754 mmHg 69%
23:00 +10°C° 0 mm 4 mps 754 mmHg 72%

Day after tomorrow, 12 April, Monday

Time Temperature Precipitation Wind Pressure Humidity
00:00 +10°C° 0 mm 4 mps 754 mmHg 75%
01:00 +8°C° 0 mm 4 mps 754 mmHg 77%
02:00 +8°C° 0 mm 4 mps 754 mmHg 81%
03:00 +9°C° 0 mm 3 mps 754 mmHg 85%
04:00 +8°C° 0 mm 3 mps 754 mmHg 88%
05:00 +9°C° 0 mm 3 mps 754 mmHg 87%
06:00 +9°C° 0 mm 3 mps 754 mmHg 85%
07:00 +10°C° 0 mm 3 mps 754 mmHg 83%
08:00 +11°C° 0 mm 3 mps 754 mmHg 78%
09:00 +12°C° 0 mm 3 mps 754 mmHg 72%
10:00 +13°C° 0 mm 3 mps 755 mmHg 67%
11:00 +12°C° 0 mm 3 mps 755 mmHg 68%
12:00 +11°C° 0 mm 4 mps 755 mmHg 70%
13:00 +9°C° 0 mm 5 mps 755 mmHg 72%
14:00 +8°C° 0 mm 5 mps 756 mmHg 72%
15:00 +7°C° 0 mm 5 mps 756 mmHg 71%
16:00 +5°C° 0 mm 6 mps 757 mmHg 71%
17:00 +5°C° 0 mm 5 mps 757 mmHg 71%
18:00 +3°C° 0 mm 5 mps 758 mmHg 71%
19:00 +3°C° 0 mm 5 mps 759 mmHg 71%
20:00 +2°C° 0 mm 5 mps 759 mmHg 73%
21:00 +3°C° 0 mm 4 mps 759 mmHg 75%
22:00 +3°C° 0 mm 4 mps 760 mmHg 77%
23:00 +3°C° 0 mm 3 mps 760 mmHg 76%

13 April, Tuesday

Time Temperature Precipitation Wind Pressure Humidity
00:00 +3°C° 0 mm 3 mps 760 mmHg 74%
01:00 +3°C° 0 mm 3 mps 760 mmHg 73%
02:00 +2°C° 0 mm 3 mps 760 mmHg 73%
03:00 +2°C° 0 mm 3 mps 760 mmHg 73%
04:00 +2°C° 0 mm 3 mps 760 mmHg 73%
05:00 +2°C° 0 mm 3 mps 760 mmHg 71%
06:00 +3°C° 0 mm 3 mps 760 mmHg 70%
07:00 +3°C° 0 mm 4 mps 760 mmHg 68%
08:00 +4°C° 0 mm 4 mps 761 mmHg 63%
09:00 +4°C° 0 mm 4 mps 761 mmHg 57%
10:00 +5°C° 0 mm 4 mps 761 mmHg 52%
11:00 +7°C° 0 mm 3 mps 761 mmHg 48%
12:00 +7°C° 0 mm 3 mps 761 mmHg 45%
13:00 +7°C° 0 mm 3 mps 761 mmHg 42%
14:00 +8°C° 0 mm 3 mps 761 mmHg 40%
15:00 +8°C° 0 mm 3 mps 761 mmHg 39%
16:00 +9°C° 0 mm 3 mps 760 mmHg 37%
17:00 +7°C° 0 mm 3 mps 761 mmHg 45%
18:00 +5°C° 0 mm 3 mps 761 mmHg 54%
19:00 +3°C° 0 mm 3 mps 761 mmHg 63%
20:00 +3°C° 0 mm 3 mps 762 mmHg 68%
21:00 +3°C° 0 mm 2 mps 762 mmHg 73%
22:00 +2°C° 0 mm 2 mps 762 mmHg 78%
23:00 +2°C° 0 mm 2 mps 762 mmHg 81%

14 April, Wednesday

Time Temperature Precipitation Wind Pressure Humidity
00:00 +2°C° 0 mm 2 mps 762 mmHg 83%
01:00 +1°C° 0 mm 2 mps 762 mmHg 85%
02:00 0°C° 0 mm 3 mps 762 mmHg 85%
03:00 0°C° 0 mm 3 mps 761 mmHg 85%
04:00 0°C° 0 mm 3 mps 761 mmHg 84%
05:00 0°C° 0 mm 4 mps 762 mmHg 82%
06:00 +1°C° 0 mm 4 mps 762 mmHg 79%
07:00 +1°C° 0 mm 5 mps 762 mmHg 76%
08:00 +2°C° 0 mm 6 mps 762 mmHg 71%
09:00 +2°C° 0 mm 6 mps 762 mmHg 65%
10:00 +3°C° 0 mm 7 mps 762 mmHg 59%
11:00 +3°C° 0 mm 7 mps 762 mmHg 57%
12:00 +4°C° 0 mm 8 mps 762 mmHg 55%
13:00 +4°C° 0 mm 8 mps 761 mmHg 53%
14:00 +4°C° 0 mm 8 mps 761 mmHg 56%
15:00 +4°C° 0 mm 8 mps 761 mmHg 58%
16:00 +3°C° 0 mm 7 mps 761 mmHg 61%
17:00 +3°C° 0 mm 7 mps 761 mmHg 62%
18:00 +2°C° 0 mm 7 mps 761 mmHg 63%
19:00 0°C° 0 mm 7 mps 761 mmHg 63%
20:00 0°C° 0 mm 7 mps 761 mmHg 65%
21:00 0°C° 0 mm 8 mps 761 mmHg 67%
22:00 0°C° 0 mm 8 mps 761 mmHg 68%
23:00 0°C° 0.1 mm 8 mps 761 mmHg 72%

15 April, Thursday

Time Temperature Precipitation Wind Pressure Humidity
00:00 0°C° 0.1 mm 8 mps 760 mmHg 75%
01:00 -1°C° 0.1 mm 8 mps 760 mmHg 78%
02:00 -1°C° 0.1 mm 8 mps 760 mmHg 79%
03:00 -1°C° 0.1 mm 8 mps 760 mmHg 80%
04:00 -1°C° 0.1 mm 8 mps 760 mmHg 80%
05:00 -1°C° 0.5 mm 8 mps 760 mmHg 83%
06:00 -1°C° 0.5 mm 8 mps 760 mmHg 86%
07:00 -1°C° 0.5 mm 8 mps 760 mmHg 89%
08:00 -1°C° 0.5 mm 8 mps 760 mmHg 88%
09:00 -1°C° 0.5 mm 8 mps 761 mmHg 86%
10:00 0°C° 0.5 mm 7 mps 761 mmHg 85%
11:00 0°C° 0.1 mm 7 mps 761 mmHg 82%
12:00 0°C° 0.1 mm 7 mps 761 mmHg 79%
13:00 +2°C° 0.1 mm 7 mps 761 mmHg 76%
14:00 +2°C° 0 mm 7 mps 762 mmHg 75%
15:00 +3°C° 0 mm 7 mps 762 mmHg 73%
16:00 +3°C° 0 mm 7 mps 762 mmHg 72%
17:00 +3°C° 0 mm 6 mps 762 mmHg 72%
18:00 +3°C° 0 mm 6 mps 763 mmHg 73%
19:00 +3°C° 0 mm 6 mps 763 mmHg 73%
20:00 +3°C° 0 mm 6 mps 764 mmHg 75%
21:00 +2°C° 0 mm 6 mps 764 mmHg 77%
22:00 +2°C° 0 mm 6 mps 764 mmHg 79%
23:00 +1°C° 0 mm 5 mps 764 mmHg 82%
Show more